Weather History for KCNK - September, 2013

Change the Weather History Date:

Tuesday, September 10, 2013

  Actual Average Record
Temperature  
Mean Temperature 85 °F 70 °F  
Max Temperature 97 °F 83 °F 100 °F (2000)
Min Temperature 73 °F 59 °F 42 °F (1962)
Degree Days  
Heating Degree Days 0 1  
Month to date heating degree days 0 8  
Since 1 July heating degree days 7 11  
Cooling Degree Days 20 7  
Month to date cooling degree days 138 80  
Year to date cooling degree days 1223 1246  
Growing Degree Days 35 (Base 50)    
Moisture  
Dew Point 60 °F    
Average Humidity 44    
Maximum Humidity 57    
Minimum Humidity 31    
Precipitation  
Precipitation 0.00 in 0.09 in 2.51 in (2003)
Month to date precipitation 0.01 0.96  
Year to date precipitation 23.58 22.06  
Snow  
Snow 0.00 in 0.00 in 0.00 in ()
Month to date snowfall 0.0 0.0  
Year to date snowfall 20.3 13.7  
Since 1 July snowfall 0.0 0.0  
Snow Depth 0.00 in    
Sea Level Pressure  
Sea Level Pressure 29.92 in    
Wind  
Wind Speed 14 mph (SSW)    
Max Wind Speed 23 mph    
Max Gust Speed 32 mph    
Visibility 10 miles    
Events Thunderstorm    
T = Trace of Precipitation, MM = Missing Value Source: NWS Daily Summary

Daily Weather History Graph

Daily Weather History Graph

Search for Another Location

Airport or City:

Trip Planner

Search our weather history database for the weather conditions in past years. The results will help you decide how hot, cold, wet, or windy it might be!

Date:

Astronomy

Sep. 10, 2013 Rise Set
Actual Time 7:07 AM CDT 7:46 PM CDT
Civil Twilight 6:40 AM CDT 8:13 PM CDT
Nautical Twilight 6:08 AM CDT 8:45 PM CDT
Astronomical Twilight 5:35 AM CDT 9:18 PM CDT
Moon 12:33 PM CDT (9/10) 10:52 PM CDT (9/10)
Length of Visible Light 13h 33m
Length of Day
12h 39m
Waxing Crescent, 28% of the Moon is Illuminated
Sep 10
Waxing Crescent
Sep 12
First Quarter
Sep 19
Full
Sep 26
Last Quarter
Oct 4
New

Hourly Weather History & Observations

Time (CDT) Temp. Heat Index Dew Point Humidity Pressure Visibility Wind Dir Wind Speed Gust Speed Precip Events Conditions
12:55 AM 78.1 °F - 57.0 °F 48% 29.85 in 10.0 mi South 17.3 mph 25.3 mph N/A   Clear
1:55 AM 77.0 °F - 57.9 °F 52% 29.86 in 10.0 mi South 16.1 mph - N/A   Partly Cloudy
2:55 AM 77.0 °F - 57.9 °F 52% 29.86 in 10.0 mi South 17.3 mph 23.0 mph N/A   Partly Cloudy
3:55 AM 75.9 °F - 57.9 °F 54% 29.87 in 10.0 mi South 13.8 mph 21.9 mph N/A   Scattered Clouds
4:55 AM 75.0 °F - 57.9 °F 55% 29.87 in 10.0 mi South 13.8 mph - N/A   Scattered Clouds
5:55 AM 73.9 °F - 57.9 °F 57% 29.88 in 10.0 mi South 12.7 mph - N/A   Mostly Cloudy
6:55 AM 73.0 °F - 57.9 °F 59% 29.90 in 10.0 mi South 13.8 mph - N/A   Mostly Cloudy
7:55 AM 73.0 °F - 57.9 °F 59% 29.91 in 10.0 mi South 10.4 mph - N/A   Clear
8:55 AM 77.0 °F - 59.0 °F 54% 29.93 in 10.0 mi SSW 13.8 mph - N/A   Clear
9:55 AM 82.0 °F 82.4 °F 60.1 °F 47% 29.94 in 10.0 mi SSW 17.3 mph 24.2 mph N/A   Clear
10:55 AM 88.0 °F 87.9 °F 61.0 °F 40% 29.94 in 10.0 mi SW 15.0 mph 24.2 mph N/A   Clear
11:55 AM 91.9 °F 91.8 °F 61.0 °F 35% 29.95 in 10.0 mi SSW 17.3 mph 24.2 mph N/A   Clear
12:55 PM 93.0 °F 93.0 °F 61.0 °F 34% 29.94 in 10.0 mi SSW 13.8 mph 24.2 mph N/A   Clear
1:55 PM 95.0 °F 95.2 °F 61.0 °F 32% 29.94 in 10.0 mi SSW 18.4 mph 26.5 mph N/A   Clear
2:55 PM 95.0 °F 94.8 °F 60.1 °F 31% 29.92 in 10.0 mi SSW 18.4 mph 28.8 mph N/A   Clear
3:55 PM 95.0 °F 94.8 °F 60.1 °F 31% 29.90 in 10.0 mi SSW 17.3 mph 26.5 mph N/A   Partly Cloudy
4:55 PM 93.9 °F 94.0 °F 61.0 °F 33% 29.89 in 10.0 mi South 24.2 mph 32.2 mph N/A   Partly Cloudy
5:43 PM 89.6 °F 89.5 °F 60.8 °F 38% 29.94 in 10.0 mi South 13.8 mph - N/A Thunderstorm Partly Cloudy
5:55 PM 90.0 °F 89.7 °F 60.1 °F 37% 29.89 in 10.0 mi South 11.5 mph 20.7 mph N/A Thunderstorm Scattered Clouds
6:06 PM 91.4 °F 91.4 °F 60.8 °F 36% 29.95 in 10.0 mi South 11.5 mph 23.0 mph N/A Thunderstorm Partly Cloudy
6:36 PM 89.6 °F 89.5 °F 60.8 °F 38% 29.96 in 10.0 mi South 9.2 mph - N/A   Scattered Clouds
6:55 PM 88.0 °F 87.9 °F 61.0 °F 40% 29.91 in 10.0 mi South 10.4 mph - N/A   Partly Cloudy
7:55 PM 84.0 °F 84.5 °F 62.1 °F 47% 29.92 in 10.0 mi South 9.2 mph - N/A   Clear
8:55 PM 84.0 °F 84.4 °F 61.0 °F 46% 29.94 in 10.0 mi South 11.5 mph - N/A   Clear
9:55 PM 82.0 °F 82.1 °F 59.0 °F 45% 29.96 in 10.0 mi South 12.7 mph - N/A   Clear
10:55 PM 81.0 °F 81.1 °F 57.9 °F 45% 29.98 in 10.0 mi South 12.7 mph - N/A   Mostly Cloudy
11:55 PM 79.0 °F - 57.9 °F 48% 29.99 in 10.0 mi South 12.7 mph - N/A   Scattered Clouds